StationID,Date,MaxTemp,MinTemp,Precipitation,Snowfall,SnowDepth
"CA008300200","1952-05-16",55.94,39.02,0.00,0.00,
"CA008300200","1952-05-17",51.98,39.92,0.00,0.00,
"CA008300200","1952-05-18",57.02,28.94,0.00,0.00,
"CA008300200","1952-05-19",62.06,33.08,0.00,0.00,
"CA008300200","1952-05-20",71.06,44.96,0.00,0.00,
"CA008300200","1952-05-21",66.92,44.96,0.00,0.00,
"CA008300200","1952-05-22",46.94,44.06,295.00,0.00,
"CA008300200","1952-05-23",48.02,42.08,8.00,0.00,
"CA008300200","1952-05-24",55.94,39.02,0.00,0.00,
"CA008300200","1952-05-25",71.96,46.94,0.00,0.00,
"CA008300200","1952-05-26",68.00,53.06,0.00,0.00,
"CA008300200","1952-05-27",55.94,48.92,124.00,0.00,
"CA008300200","1952-05-28",48.02,42.98,241.00,0.00,
"CA008300200","1952-05-29",46.04,41.00,3.00,0.00,
"CA008300200","1952-05-30",64.94,35.96,0.00,0.00,
"CA008300200","1952-05-31",64.94,44.96,0.00,0.00,
"CA008300200","1952-06-01",66.92,42.98,0.00,0.00,
"CA008300200","1952-06-02",66.92,55.94,28.00,0.00,
"CA008300200","1952-06-03",66.02,48.02,208.00,0.00,
"CA008300200","1952-06-04",71.06,53.06,5.00,0.00,
"CA008300200","1952-06-05",59.00,48.92,0.00,0.00,
"CA008300200","1952-06-06",62.06,48.92,0.00,0.00,
"CA008300200","1952-06-07",62.96,55.04,76.00,0.00,
"CA008300200","1952-06-08",55.94,46.04,56.00,0.00,
"CA008300200","1952-06-09",62.06,44.06,0.00,0.00,
"CA008300200","1952-06-10",71.06,46.94,0.00,0.00,
"CA008300200","1952-06-11",57.92,48.92,8.00,0.00,
"CA008300200","1952-06-12",60.98,46.04,0.00,0.00,
"CA008300200","1952-06-13",69.98,50.00,0.00,0.00,
"CA008300200","1952-06-14",78.98,51.98,0.00,0.00,
"CA008300200","1952-06-15",69.98,48.92,33.00,0.00,
"CA008300200","1952-06-16",57.02,46.94,5.00,0.00,
"CA008300200","1952-06-17",55.04,46.04,0.00,0.00,
"CA008300200","1952-06-18",60.08,48.92,124.00,0.00,
"CA008300200","1952-06-19",69.08,51.98,3.00,0.00,
"CA008300200","1952-06-20",60.98,51.98,0.00,0.00,
"CA008300200","1952-06-21",64.04,50.00,8.00,0.00,
"CA008300200","1952-06-22",78.98,51.08,0.00,0.00,
"CA008300200","1952-06-23",78.08,48.92,5.00,0.00,
"CA008300200","1952-06-24",75.02,55.04,0.00,0.00,
"CA008300200","1952-06-25",62.96,53.06,0.00,0.00,
"CA008300200","1952-06-26",66.92,53.06,33.00,0.00,
"CA008300200","1952-06-27",62.06,50.00,33.00,0.00,
"CA008300200","1952-06-28",62.96,50.00,0.00,0.00,
"CA008300200","1952-06-29",71.06,48.02,0.00,0.00,
"CA008300200","1952-06-30",60.98,46.94,0.00,0.00,
"CA008300200","1952-07-01",69.98,48.92,0.00,0.00,
"CA008300200","1952-07-02",82.94,53.96,0.00,0.00,
"CA008300200","1952-07-03",64.04,57.02,0.00,0.00,
"CA008300200","1952-07-04",78.98,53.96,0.00,0.00,
"CA008300200","1952-07-05",80.06,64.04,0.00,0.00,
"CA008300200","1952-07-06",69.98,55.94,0.00,0.00,
"CA008300200","1952-07-07",82.94,51.98,0.00,0.00,
"CA008300200","1952-07-08",87.98,60.98,0.00,0.00,
"CA008300200","1952-07-09",82.94,60.98,0.00,0.00,
"CA008300200","1952-07-10",78.98,57.02,0.00,0.00,
"CA008300200","1952-07-11",71.96,64.04,0.00,0.00,
"CA008300200","1952-07-12",77.00,62.06,231.00,0.00,
"CA008300200","1952-07-13",73.94,60.98,13.00,0.00,
"CA008300200","1952-07-14",71.06,57.92,8.00,0.00,
"CA008300200","1952-07-15",84.02,64.04,0.00,0.00,
"CA008300200","1952-07-16",82.94,66.02,0.00,0.00,
"CA008300200","1952-07-17",69.98,60.98,0.00,0.00,
"CA008300200","1952-07-18",78.98,53.96,0.00,0.00,
"CA008300200","1952-07-19",78.98,66.02,0.00,0.00,
"CA008300200","1952-07-20",66.92,57.92,3.00,0.00,
"CA008300200","1952-07-21",66.92,50.00,13.00,0.00,
"CA008300200","1952-07-22",75.92,53.06,0.00,0.00,
"CA008300200","1952-07-23",86.00,64.94,0.00,0.00,
"CA008300200","1952-07-24",84.02,69.08,0.00,0.00,
"CA008300200","1952-07-25",75.92,59.00,0.00,0.00,
"CA008300200","1952-07-26",82.94,57.92,0.00,0.00,
"CA008300200","1952-07-27",80.96,64.04,0.00,0.00,
"CA008300200","1952-07-28",78.08,64.04,0.00,0.00,
"CA008300200","1952-07-29",78.08,64.94,0.00,0.00,
"CA008300200","1952-07-30",69.08,60.08,51.00,0.00,
"CA008300200","1952-07-31",71.96,57.92,0.00,0.00,
"CA008300200","1952-08-01",80.96,62.06,5.00,0.00,
"CA008300200","1952-08-02",73.94,64.04,0.00,0.00,
"CA008300200","1952-08-03",78.98,64.04,0.00,0.00,
"CA008300200","1952-08-04",71.96,55.94,0.00,0.00,
"CA008300200","1952-08-05",82.04,62.96,0.00,0.00,
"CA008300200","1952-08-06",80.06,66.92,58.00,0.00,
"CA008300200","1952-08-07",69.98,64.04,13.00,0.00,
"CA008300200","1952-08-08",71.96,59.00,23.00,0.00,
"CA008300200","1952-08-09",75.02,57.02,0.00,0.00,
"CA008300200","1952-08-10",73.04,59.00,0.00,0.00,
"CA008300200","1952-08-11",84.02,64.04,0.00,0.00,
"CA008300200","1952-08-12",84.92,66.92,0.00,0.00,
"CA008300200","1952-08-13",71.96,64.04,114.00,0.00,
"CA008300200","1952-08-14",73.94,62.06,0.00,0.00,
"CA008300200","1952-08-15",75.92,60.98,0.00,0.00,
"CA008300200","1952-08-16",82.94,62.06,0.00,0.00,
"CA008300200","1952-08-17",80.06,62.06,0.00,0.00,
"CA008300200","1952-08-18",66.02,60.08,363.00,0.00,
"CA008300200","1952-08-19",69.98,57.92,0.00,0.00,
"CA008300200","1952-08-20",75.92,53.96,0.00,0.00,
"CA008300200","1952-08-21",80.06,53.96,0.00,0.00,
"CA008300200","1952-08-22",80.06,55.94,0.00,0.00,
"CA008300200","1952-08-23",66.92,55.04,51.00,0.00,
"CA008300200","1952-08-24",62.96,53.96,58.00,0.00,
"CA008300200","1952-08-25",68.00,53.06,5.00,0.00,
"CA008300200","1952-08-26",77.00,60.08,0.00,0.00,
"CA008300200","1952-08-27",86.00,57.92,0.00,0.00,
"CA008300200","1952-08-28",87.08,69.08,0.00,0.00,
"CA008300200","1952-08-29",84.02,66.02,0.00,0.00,
"CA008300200","1952-08-30",62.96,55.94,23.00,0.00,
"CA008300200","1952-08-31",64.94,55.94,0.00,0.00,
"CA008300200","1952-09-01",75.92,51.98,0.00,0.00,
"CA008300200","1952-09-02",84.02,62.06,0.00,0.00,
"CA008300200","1952-09-03",82.94,62.96,8.00,0.00,
"CA008300200","1952-09-04",73.04,57.92,0.00,0.00,
"CA008300200","1952-09-05",68.00,53.96,0.00,0.00,
"CA008300200","1952-09-06",80.06,55.04,0.00,0.00,
"CA008300200","1952-09-07",55.94,51.98,38.00,0.00,
"CA008300200","1952-09-08",60.08,51.98,0.00,0.00,
"CA008300200","1952-09-09",68.00,42.08,0.00,0.00,
"CA008300200","1952-09-10",73.04,53.96,18.00,0.00,
"CA008300200","1952-09-11",64.94,50.00,0.00,0.00,
"CA008300200","1952-09-12",62.06,53.96,41.00,0.00,
"CA008300200","1952-09-13",60.08,50.00,0.00,0.00,
"CA008300200","1952-09-14",57.92,51.98,0.00,0.00,
"CA008300200","1952-09-15",60.98,44.96,0.00,0.00,
"CA008300200","1952-09-16",64.94,44.96,107.00,0.00,
"CA008300200","1952-09-17",73.94,55.04,0.00,0.00,
"CA008300200","1952-09-18",73.94,33.98,20.00,0.00,
"CA008300200","1952-09-19",78.08,55.94,99.00,0.00,
"CA008300200","1952-09-20",71.96,62.06,0.00,0.00,
"CA008300200","1952-09-21",66.02,51.98,0.00,0.00,
"CA008300200","1952-09-22",69.08,51.98,0.00,0.00,
"CA008300200","1952-09-23",60.98,48.02,0.00,0.00,
"CA008300200","1952-09-24",64.94,42.98,89.00,0.00,
"CA008300200","1952-09-25",68.00,51.08,0.00,0.00,
"CA008300200","1952-09-26",68.00,48.02,0.00,0.00,
"CA008300200","1952-09-27",57.02,48.92,0.00,0.00,
"CA008300200","1952-09-28",60.98,42.08,0.00,0.00,
"CA008300200","1952-09-29",75.92,48.02,0.00,0.00,
"CA008300200","1952-09-30",60.08,51.08,0.00,0.00,
"CA008300200","1952-10-01",62.06,51.08,0.00,0.00,
"CA008300200","1952-10-02",68.00,44.96,119.00,0.00,
"CA008300200","1952-10-03",73.04,55.94,46.00,0.00,
"CA008300200","1952-10-04",51.98,46.04,0.00,0.00,
"CA008300200","1952-10-05",62.06,46.04,0.00,0.00,
"CA008300200","1952-10-06",71.06,53.96,0.00,0.00,
"CA008300200","1952-10-07",69.08,53.06,76.00,0.00,
"CA008300200","1952-10-08",50.00,46.04,0.00,0.00,
"CA008300200","1952-10-09",55.94,37.94,0.00,0.00,
"CA008300200","1952-10-10",51.98,44.06,0.00,0.00,
"CA008300200","1952-10-11",51.08,37.94,0.00,0.00,
"CA008300200","1952-10-12",55.94,42.08,0.00,0.00,
"CA008300200","1952-10-13",62.06,41.00,0.00,0.00,
"CA008300200","1952-10-14",59.00,51.08,8.00,0.00,
"CA008300200","1952-10-15",57.92,44.06,30.00,0.00,
"CA008300200","1952-10-16",60.98,50.00,0.00,0.00,
"CA008300200","1952-10-17",53.06,39.02,0.00,0.00,
"CA008300200","1952-10-18",46.04,37.94,0.00,0.00,
"CA008300200","1952-10-19",44.06,33.98,0.00,0.00,
"CA008300200","1952-10-20",42.98,35.96,140.00,5.00,
"CA008300200","1952-10-21",37.94,33.98,0.00,0.00,
"CA008300200","1952-10-22",46.04,33.98,0.00,0.00,
"CA008300200","1952-10-23",57.92,39.92,13.00,0.00,
"CA008300200","1952-10-24",46.94,44.06,33.00,0.00,
"CA008300200","1952-10-25",42.98,39.92,0.00,0.00,
"CA008300200","1952-10-26",42.98,37.94,0.00,0.00,
"CA008300200","1952-10-27",57.02,32.00,0.00,0.00,
"CA008300200","1952-10-28",69.08,51.98,94.00,0.00,
"CA008300200","1952-10-29",60.08,39.92,8.00,0.00,
"CA008300200","1952-10-30",42.08,33.08,0.00,0.00,
"CA008300200","1952-10-31",53.06,37.94,0.00,0.00,
"CA008300200","1952-11-01",50.00,41.00,0.00,0.00,
"CA008300200","1952-11-02",48.02,42.08,0.00,0.00,
"CA008300200","1952-11-03",60.08,42.98,173.00,0.00,
"CA008300200","1952-11-04",42.98,42.08,33.00,0.00,
"CA008300200","1952-11-05",39.92,37.94,0.00,0.00,
"CA008300200","1952-11-06",46.04,33.08,74.00,0.00,
"CA008300200","1952-11-07",48.92,42.08,13.00,0.00,
"CA008300200","1952-11-08",37.94,35.96,0.00,0.00,
"CA008300200","1952-11-09",37.94,32.00,38.00,0.00,
"CA008300200","1952-11-10",42.08,32.00,25.00,0.00,
"CA008300200","1952-11-11",35.96,32.00,5.00,0.00,
"CA008300200","1952-11-12",37.94,28.04,25.00,0.00,
"CA008300200","1952-11-13",33.08,28.04,0.00,0.00,
"CA008300200","1952-11-14",35.06,21.92,0.00,0.00,
"CA008300200","1952-11-15",42.08,28.94,0.00,0.00,
"CA008300200","1952-11-16",37.94,33.08,0.00,0.00,
"CA008300200","1952-11-17",37.94,32.00,0.00,0.00,
"CA008300200","1952-11-18",37.94,30.02,0.00,0.00,
"CA008300200","1952-11-19",39.92,33.08,13.00,0.00,
"CA008300200","1952-11-20",39.02,33.08,5.00,0.00,
"CA008300200","1952-11-21",39.92,35.06,0.00,0.00,
"CA008300200","1952-11-22",37.94,35.06,0.00,0.00,
"CA008300200","1952-11-23",39.92,33.98,0.00,0.00,
"CA008300200","1952-11-24",48.02,35.06,99.00,0.00,
"CA008300200","1952-11-25",44.96,35.06,0.00,0.00,
"CA008300200","1952-11-26",44.06,30.02,0.00,0.00,
"CA008300200","1952-11-27",51.98,39.02,5.00,0.00,
"CA008300200","1952-11-28",39.92,35.96,33.00,0.00,
"CA008300200","1952-11-29",35.06,28.04,0.00,0.00,
"CA008300200","1952-11-30",32.00,19.94,0.00,0.00,
"CA008300200","1952-12-01",33.08,19.94,0.00,0.00,
"CA008300200","1952-12-02",32.00,24.98,0.00,0.00,
"CA008300200","1952-12-03",33.08,26.06,0.00,0.00,
"CA008300200","1952-12-04",32.00,28.04,0.00,0.00,
"CA008300200","1952-12-05",32.00,26.06,0.00,0.00,
"CA008300200","1952-12-06",32.00,17.96,0.00,0.00,
"CA008300200","1952-12-07",35.96,28.04,0.00,0.00,
"CA008300200","1952-12-08",37.94,33.08,0.00,0.00,
"CA008300200","1952-12-09",33.98,30.02,0.00,0.00,
"CA008300200","1952-12-10",33.08,28.04,0.00,0.00,
"CA008300200","1952-12-11",39.92,24.98,3.00,0.00,
"CA008300200","1952-12-12",46.94,33.08,51.00,0.00,
"CA008300200","1952-12-13",44.96,35.96,0.00,0.00,
"CA008300200","1952-12-14",42.08,28.94,25.00,0.00,
"CA008300200","1952-12-15",39.92,28.94,76.00,76.00,
"CA008300200","1952-12-16",32.00,28.04,0.00,0.00,
"CA008300200","1952-12-17",33.08,26.96,0.00,0.00,
"CA008300200","1952-12-18",32.00,23.00,0.00,0.00,
"CA008300200","1952-12-19",26.06,17.96,0.00,0.00,
"CA008300200","1952-12-20",23.00,12.02,0.00,0.00,
"CA008300200","1952-12-21",26.06,12.92,0.00,0.00,
"CA008300200","1952-12-22",26.96,21.02,0.00,0.00,
"CA008300200","1952-12-23",35.96,30.02,58.00,0.00,
"CA008300200","1952-12-24",44.96,32.00,137.00,0.00,
"CA008300200","1952-12-25",42.98,33.08,23.00,0.00,
"CA008300200","1952-12-26",33.98,28.94,0.00,0.00,
"CA008300200","1952-12-27",28.94,21.02,,,
"CA008300200","1952-12-28",30.92,17.96,,,
"CA008300200","1952-12-29",23.00,15.08,0.00,0.00,
"CA008300200","1952-12-30",17.06,10.94,0.00,0.00,
"CA008300200","1952-12-31",15.98,5.00,0.00,0.00,
"CA008300200","1953-01-01",28.04,3.92,0.00,0.00,
"CA008300200","1953-01-02",30.02,12.92,0.00,0.00,
"CA008300200","1953-01-03",46.04,21.02,196.00,0.00,
"CA008300200","1953-01-04",44.96,33.08,0.00,0.00,
"CA008300200","1953-01-05",28.94,21.92,0.00,0.00,
"CA008300200","1953-01-06",21.92,8.96,38.00,38.00,
"CA008300200","1953-01-07",17.06,10.94,0.00,0.00,
"CA008300200","1953-01-08",19.94,8.96,13.00,13.00,
"CA008300200","1953-01-09",26.06,10.04,0.00,0.00,
"CA008300200","1953-01-10",33.08,14.00,25.00,0.00,
"CA008300200","1953-01-11",48.92,21.02,264.00,0.00,
"CA008300200","1953-01-12",35.06,30.02,3.00,0.00,
"CA008300200","1953-01-13",30.02,19.94,13.00,13.00,
"CA008300200","1953-01-14",28.04,19.94,0.00,0.00,
"CA008300200","1953-01-15",37.94,12.02,0.00,0.00,
"CA008300200","1953-01-16",48.02,28.04,13.00,0.00,
"CA008300200","1953-01-17",19.94,10.04,,,
"CA008300200","1953-01-18",37.94,10.94,,,
"CA008300200","1953-01-19",37.94,24.98,0.00,0.00,
"CA008300200","1953-01-20",32.00,26.06,0.00,0.00,
"CA008300200","1953-01-21",26.06,10.94,0.00,0.00,
"CA008300200","1953-01-22",28.04,17.96,0.00,0.00,
"CA008300200","1953-01-23",35.06,21.92,0.00,0.00,
"CA008300200","1953-01-24",51.98,17.06,206.00,0.00,
"CA008300200","1953-01-25",53.06,37.94,0.00,0.00,
"CA008300200","1953-01-26",24.08,19.04,13.00,13.00,
"CA008300200","1953-01-27",19.94,15.98,13.00,13.00,
"CA008300200","1953-01-28",42.08,12.02,25.00,13.00,
"CA008300200","1953-01-29",32.00,19.94,0.00,0.00,
"CA008300200","1953-01-30",21.92,8.96,81.00,0.00,
"CA008300200","1953-01-31",44.96,12.02,13.00,13.00,
"CA008300200","1953-02-01",46.04,28.04,71.00,13.00,
"CA008300200","1953-02-02",10.04,-0.94,0.00,0.00,
"CA008300200","1953-02-03",26.06,3.92,0.00,0.00,
"CA008300200","1953-02-04",26.96,8.96,51.00,51.00,
"CA008300200","1953-02-05",26.06,12.02,51.00,51.00,
"CA008300200","1953-02-06",30.02,8.96,0.00,0.00,
"CA008300200","1953-02-07",46.04,17.96,5.00,0.00,
"CA008300200","1953-02-08",51.08,30.92,246.00,0.00,
"CA008300200","1953-02-09",35.96,28.94,368.00,0.00,
"CA008300200","1953-02-10",28.04,15.98,38.00,38.00,
"CA008300200","1953-02-11",24.08,19.94,25.00,25.00,
"CA008300200","1953-02-12",24.08,19.04,0.00,0.00,
"CA008300200","1953-02-13",28.04,17.96,0.00,0.00,
"CA008300200","1953-02-14",28.94,23.00,102.00,102.00,
"CA008300200","1953-02-15",42.98,10.94,0.00,0.00,
"CA008300200","1953-02-16",51.08,19.04,76.00,0.00,
"CA008300200","1953-02-17",33.98,23.00,0.00,0.00,
"CA008300200","1953-02-18",24.08,12.02,0.00,0.00,
"CA008300200","1953-02-19",26.96,12.92,0.00,0.00,
"CA008300200","1953-02-20",28.94,12.02,0.00,0.00,
"CA008300200","1953-02-21",51.98,24.98,0.00,0.00,
"CA008300200","1953-02-22",35.06,26.96,5.00,0.00,
"CA008300200","1953-02-23",19.94,10.94,0.00,0.00,
"CA008300200","1953-02-24",30.92,8.96,0.00,0.00,
"CA008300200","1953-02-25",28.94,19.04,0.00,0.00,
"CA008300200","1953-02-26",39.92,8.96,0.00,0.00,
"CA008300200","1953-02-27",42.08,28.04,25.00,25.00,
"CA008300200","1953-02-28",37.94,30.92,33.00,0.00,
"CA008300200","1953-03-01",24.08,17.06,0.00,0.00,
"CA008300200","1953-03-02",24.08,15.08,25.00,25.00,
"CA008300200","1953-03-03",24.98,17.06,0.00,0.00,
"CA008300200","1953-03-04",44.06,12.02,23.00,0.00,
"CA008300200","1953-03-05",39.92,32.00,36.00,0.00,
"CA008300200","1953-03-06",33.08,24.98,0.00,0.00,
"CA008300200","1953-03-07",21.92,17.96,0.00,0.00,
"CA008300200","1953-03-08",15.98,8.06,0.00,0.00,
"CA008300200","1953-03-09",19.94,8.96,0.00,0.00,
"CA008300200","1953-03-10",19.04,8.06,0.00,0.00,
"CA008300200","1953-03-11",32.00,12.92,0.00,0.00,
"CA008300200","1953-03-12",44.96,24.98,0.00,0.00,
"CA008300200","1953-03-13",32.00,19.04,76.00,76.00,
"CA008300200","1953-03-14",37.04,19.94,89.00,25.00,
"CA008300200","1953-03-15",30.02,21.92,0.00,0.00,
"CA008300200","1953-03-16",33.98,23.00,0.00,0.00,
"CA008300200","1953-03-17",35.06,24.98,152.00,25.00,
"CA008300200","1953-03-18",33.08,24.98,0.00,0.00,
"CA008300200","1953-03-19",33.08,24.98,0.00,0.00,
"CA008300200","1953-03-20",33.98,24.98,0.00,0.00,
"CA008300200","1953-03-21",37.04,17.96,0.00,0.00,
"CA008300200","1953-03-22",44.96,28.04,0.00,0.00,
"CA008300200","1953-03-23",37.04,30.02,0.00,0.00,
"CA008300200","1953-03-24",46.94,28.04,0.00,0.00,
"CA008300200","1953-03-25",46.04,35.96,66.00,0.00,
"CA008300200","1953-03-26",46.94,33.98,76.00,0.00,
"CA008300200","1953-03-27",48.02,30.02,0.00,0.00,
"CA008300200","1953-03-28",39.92,33.08,160.00,0.00,
"CA008300200","1953-03-29",41.00,33.08,0.00,0.00,
"CA008300200","1953-03-30",42.98,33.08,30.00,0.00,
"CA008300200","1953-03-31",46.94,33.08,15.00,0.00,
"CA008300200","1953-04-01",39.02,32.00,150.00,0.00,
"CA008300200","1953-04-02",42.08,30.02,28.00,0.00,
"CA008300200","1953-04-03",37.94,32.00,0.00,0.00,
"CA008300200","1953-04-04",44.06,32.00,3.00,0.00,
"CA008300200","1953-04-05",42.08,28.04,0.00,0.00,
"CA008300200","1953-04-06",37.94,28.94,0.00,0.00,
"CA008300200","1953-04-07",39.92,30.92,0.00,0.00,
"CA008300200","1953-04-08",39.92,30.02,0.00,0.00,
"CA008300200","1953-04-09",37.94,28.94,0.00,0.00,
"CA008300200","1953-04-10",42.08,33.08,0.00,0.00,
"CA008300200","1953-04-11",44.06,35.06,0.00,0.00,
"CA008300200","1953-04-12",46.94,33.08,0.00,0.00,
"CA008300200","1953-04-13",50.00,33.98,13.00,0.00,
"CA008300200","1953-04-14",51.08,33.98,53.00,0.00,
"CA008300200","1953-04-15",42.08,33.08,10.00,0.00,
"CA008300200","1953-04-16",41.00,32.00,0.00,0.00,
"CA008300200","1953-04-17",51.98,26.06,0.00,0.00,
"CA008300200","1953-04-18",39.02,33.08,38.00,0.00,
"CA008300200","1953-04-19",42.08,33.98,0.00,0.00,
"CA008300200","1953-04-20",48.02,32.00,10.00,0.00,
"CA008300200","1953-04-21",48.02,33.08,25.00,0.00,
"CA008300200","1953-04-22",55.04,35.06,3.00,0.00,
"CA008300200","1953-04-23",50.00,35.06,43.00,0.00,
"CA008300200","1953-04-24",51.98,37.94,0.00,0.00,
"CA008300200","1953-04-25",55.94,33.08,0.00,0.00,
"CA008300200","1953-04-26",44.96,37.04,15.00,0.00,
"CA008300200","1953-04-27",53.06,35.06,43.00,0.00,
"CA008300200","1953-04-28",55.94,44.96,13.00,0.00,
"CA008300200","1953-04-29",48.92,37.94,84.00,0.00,
"CA008300200","1953-04-30",46.94,35.96,0.00,0.00,
"CA008300200","1953-05-01",42.98,35.06,0.00,0.00,
"CA008300200","1953-05-02",42.98,33.98,0.00,0.00,
"CA008300200","1953-05-03",57.92,26.96,0.00,0.00,
"CA008300200","1953-05-04",51.08,37.04,0.00,0.00,
"CA008300200","1953-05-05",57.02,39.02,0.00,0.00,
"CA008300200","1953-05-06",50.00,41.00,0.00,0.00,
"CA008300200","1953-05-07",55.94,39.92,15.00,0.00,
"CA008300200","1953-05-08",66.92,42.08,0.00,0.00,
"CA008300200","1953-05-09",60.08,42.98,0.00,0.00,
"CA008300200","1953-05-10",77.00,39.92,5.00,0.00,
"CA008300200","1953-05-11",48.02,37.94,0.00,0.00,
"CA008300200","1953-05-12",57.02,35.06,0.00,0.00,
"CA008300200","1953-05-13",46.94,37.04,0.00,0.00,
"CA008300200","1953-05-14",48.92,42.08,61.00,0.00,
"CA008300200","1953-05-15",53.06,42.08,0.00,0.00,
"CA008300200","1953-05-16",48.02,42.08,102.00,0.00,
"CA008300200","1953-05-17",59.00,37.94,0.00,0.00,
"CA008300200","1953-05-18",57.92,39.02,135.00,0.00,
"CA008300200","1953-05-19",48.02,42.98,160.00,0.00,
"CA008300200","1953-05-20",48.92,42.08,8.00,0.00,
"CA008300200","1953-05-21",64.04,37.94,0.00,0.00,
"CA008300200","1953-05-22",59.00,41.00,0.00,0.00,
"CA008300200","1953-05-23",53.06,46.94,71.00,0.00,
"CA008300200","1953-05-24",46.04,42.08,86.00,0.00,
"CA008300200","1953-05-25",46.04,39.02,5.00,0.00,
"CA008300200","1953-05-26",46.94,37.94,0.00,0.00,
"CA008300200","1953-05-27",50.00,30.92,0.00,0.00,
"CA008300200","1953-05-28",48.92,37.94,0.00,0.00,
"CA008300200","1953-05-29",50.00,39.02,0.00,0.00,
"CA008300200","1953-05-30",42.98,35.96,8.00,0.00,
"CA008300200","1953-05-31",46.04,35.06,61.00,0.00,
"CA008300200","1953-06-01",55.04,42.98,13.00,0.00,
"CA008300200","1953-06-02",64.04,39.02,0.00,0.00,
"CA008300200","1953-06-03",53.96,42.98,33.00,0.00,
"CA008300200","1953-06-04",55.04,39.92,0.00,0.00,
"CA008300200","1953-06-05",60.08,37.94,30.00,0.00,
"CA008300200","1953-06-06",62.06,42.08,8.00,0.00,
"CA008300200","1953-06-07",60.08,44.96,89.00,0.00,
"CA008300200","1953-06-08",59.00,46.04,0.00,0.00,
"CA008300200","1953-06-09",71.96,46.94,5.00,0.00,
"CA008300200","1953-06-10",64.94,57.02,0.00,0.00,
"CA008300200","1953-06-11",48.92,42.98,28.00,0.00,
"CA008300200","1953-06-12",48.92,39.92,0.00,0.00,
"CA008300200","1953-06-13",55.94,35.06,0.00,0.00,
"CA008300200","1953-06-14",68.00,46.04,0.00,0.00,
"CA008300200","1953-06-15",55.04,50.00,66.00,0.00,
"CA008300200","1953-06-16",71.06,48.92,0.00,0.00,
"CA008300200","1953-06-17",75.92,60.08,0.00,0.00,
"CA008300200","1953-06-18",73.94,62.06,0.00,0.00,
"CA008300200","1953-06-19",77.00,60.08,0.00,0.00,
"CA008300200","1953-06-20",73.94,62.06,0.00,0.00,
"CA008300200","1953-06-21",66.92,50.00,0.00,0.00,
"CA008300200","1953-06-22",71.06,51.08,10.00,0.00,
"CA008300200","1953-06-23",80.06,59.00,0.00,0.00,
"CA008300200","1953-06-24",66.02,55.04,0.00,0.00,
"CA008300200","1953-06-25",75.02,51.08,0.00,0.00,
"CA008300200","1953-06-26",69.98,55.04,0.00,0.00,
"CA008300200","1953-06-27",80.96,62.06,0.00,0.00,
"CA008300200","1953-06-28",80.96,57.02,0.00,0.00,
"CA008300200","1953-06-29",73.94,62.96,0.00,0.00,
"CA008300200","1953-06-30",77.00,51.98,0.00,0.00,
"CA008300200","1953-07-01",68.00,55.04,23.00,0.00,
"CA008300200","1953-07-02",66.02,48.02,0.00,0.00,
"CA008300200","1953-07-03",78.98,55.04,193.00,0.00,
"CA008300200","1953-07-04",62.06,53.06,0.00,0.00,
"CA008300200","1953-07-05",64.04,55.04,0.00,0.00,
"CA008300200","1953-07-06",71.06,51.98,0.00,0.00,
"CA008300200","1953-07-07",71.06,62.06,25.00,0.00,
"CA008300200","1953-07-08",82.04,60.98,0.00,0.00,
"CA008300200","1953-07-09",73.04,60.98,0.00,0.00,
"CA008300200","1953-07-10",71.06,55.04,0.00,0.00,
"CA008300200","1953-07-11",80.96,55.04,0.00,0.00,
"CA008300200","1953-07-12",77.00,60.08,0.00,0.00,
"CA008300200","1953-07-13",80.96,62.96,0.00,0.00,
"CA008300200","1953-07-14",77.00,62.06,0.00,0.00,
"CA008300200","1953-07-15",71.96,60.98,165.00,0.00,
"CA008300200","1953-07-16",71.06,62.06,0.00,0.00,
"CA008300200","1953-07-17",71.06,60.08,46.00,0.00,
"CA008300200","1953-07-18",78.08,60.08,0.00,0.00,
"CA008300200","1953-07-19",82.94,60.98,0.00,0.00,
"CA008300200","1953-07-20",82.04,60.08,0.00,0.00,
"CA008300200","1953-07-21",66.92,62.06,279.00,0.00,
"CA008300200","1953-07-22",71.96,62.06,0.00,0.00,
"CA008300200","1953-07-23",75.02,60.98,25.00,0.00,
"CA008300200","1953-07-24",77.00,60.98,183.00,0.00,
"CA008300200","1953-07-25",77.00,57.92,0.00,0.00,
"CA008300200","1953-07-26",75.02,55.04,0.00,0.00,
"CA008300200","1953-07-27",71.96,57.02,0.00,0.00,
"CA008300200","1953-07-28",69.08,57.02,33.00,0.00,
"CA008300200","1953-07-29",75.02,53.06,0.00,0.00,
"CA008300200","1953-07-30",73.04,60.98,0.00,0.00,
"CA008300200","1953-07-31",75.02,51.98,30.00,0.00,
"CA008300200","1953-08-01",60.08,48.92,76.00,0.00,
"CA008300200","1953-08-02",64.04,50.00,66.00,0.00,
"CA008300200","1953-08-03",64.94,48.92,0.00,0.00,
"CA008300200","1953-08-04",66.92,48.02,0.00,0.00,
"CA008300200","1953-08-05",60.98,53.96,18.00,0.00,
"CA008300200","1953-08-06",64.94,53.06,0.00,0.00,
"CA008300200","1953-08-07",73.94,48.02,0.00,0.00,
"CA008300200","1953-08-08",73.04,53.96,0.00,0.00,
"CA008300200","1953-08-09",73.94,57.92,0.00,0.00,
"CA008300200","1953-08-10",71.06,51.98,69.00,0.00,
"CA008300200","1953-08-11",73.94,60.98,132.00,0.00,
"CA008300200","1953-08-12",73.94,59.00,0.00,0.00,
"CA008300200","1953-08-13",78.98,59.00,0.00,0.00,
"CA008300200","1953-08-14",80.06,62.96,0.00,0.00,
"CA008300200","1953-08-15",73.04,64.04,363.00,0.00,
"CA008300200","1953-08-16",71.96,59.00,0.00,0.00,
"CA008300200","1953-08-17",71.96,57.02,0.00,0.00,
"CA008300200","1953-08-18",71.06,55.94,0.00,0.00,
"CA008300200","1953-08-19",68.00,50.00,0.00,0.00,
"CA008300200","1953-08-20",64.94,50.00,0.00,0.00,
"CA008300200","1953-08-21",73.04,48.02,0.00,0.00,
"CA008300200","1953-08-22",75.92,53.96,0.00,0.00,
"CA008300200","1953-08-23",71.96,59.00,61.00,0.00,
"CA008300200","1953-08-24",64.04,53.96,3.00,0.00,